Newberry, SC

1:07 PM EST on February 13, 2016 (GMT -0500)
Newberry

Weather History for KEOE - November, 2011

Change the Weather History Date:

Monday, November 21, 2011

  Actual Average (KFDW) Record (KFDW)
Temperature  
Mean Temperature 68 °F -  
Max Temperature 77 °F 62 °F 78 °F (2011)
Min Temperature 59 °F 40 °F 37 °F (2014)
Cooling Degree Days 3    
Growing Degree Days 18 (Base 50)    
Moisture  
Dew Point 61 °F    
Average Humidity 89    
Maximum Humidity 100    
Minimum Humidity 54    
Precipitation  
Precipitation 0.01 in - - ()
Sea Level Pressure  
Sea Level Pressure 30.26 in    
Wind  
Wind Speed 4 mph (WSW)    
Max Wind Speed 13 mph    
Max Gust Speed 17 mph    
Visibility 5 miles    
Events Fog    
Averages and records for this station are not official NWS values.
T = Trace of Precipitation, MM = Missing Value Source: NWS Daily Summary

Daily Weather History Graph

Daily Weather History Graph

Search for Another Location

Airport or City:

Trip Planner

Search our weather history database for the weather conditions in past years. The results will help you decide how hot, cold, wet, or windy it might be!

Date:

Astronomy

Nov. 21, 2011 Rise Set
Actual Time 7:05 AM EST 5:19 PM EST
Civil Twilight 6:38 AM EST 5:46 PM EST
Nautical Twilight 6:07 AM EST 6:16 PM EST
Astronomical Twilight 5:37 AM EST 6:46 PM EST
Moon 2:51 AM EST (11/21) 2:33 PM EST (11/21)
Length of Visible Light 11h 08m
Length of Day
10h 14m
Waning Crescent, 18% of the Moon is Illuminated
Nov 21
Waning Crescent
Nov 25
New
Dec 2
First Quarter
Dec 10
Full
Dec 17
Last Quarter

Hourly Weather History & Observations

Time (EST) Temp. Dew Point Humidity Pressure Visibility Wind Dir Wind Speed Gust Speed Precip Events Conditions
12:15 AM 59.0 °F 59.0 °F 100% 30.29 in 0.2 mi Calm Calm - N/A Fog Fog
12:35 AM 59.0 °F 59.0 °F 100% 30.29 in 0.2 mi SSW 3.5 mph - N/A Fog Fog
12:55 AM 59.0 °F 59.0 °F 100% 30.29 in 0.5 mi SSW 3.5 mph - N/A Fog Fog
1:15 AM 59.0 °F 59.0 °F 100% 30.29 in 0.5 mi WSW 3.5 mph - N/A Fog Fog
1:35 AM 59.0 °F 59.0 °F 100% 30.28 in 0.2 mi WSW 3.5 mph - N/A Fog Fog
1:55 AM 59.0 °F 59.0 °F 100% 30.28 in 0.2 mi WSW 3.5 mph - N/A Fog Fog
2:15 AM 59.0 °F 59.0 °F 100% 30.27 in 0.2 mi SW 3.5 mph - N/A Fog Fog
2:35 AM 59.0 °F 59.0 °F 100% 30.27 in 0.2 mi Calm Calm - N/A Fog Fog
2:55 AM 59.0 °F 59.0 °F 100% 30.27 in 0.2 mi Calm Calm - N/A Fog Fog
3:15 AM 59.0 °F 59.0 °F 100% 30.27 in 0.2 mi South 3.5 mph - N/A Fog Fog
3:55 AM 59.0 °F 59.0 °F 100% 30.26 in 0.2 mi Calm Calm - N/A Fog Fog
4:15 AM 59.0 °F 59.0 °F 100% 30.27 in 0.2 mi Calm Calm - N/A Fog Fog
4:35 AM 59.0 °F 59.0 °F 100% 30.27 in 0.2 mi SW 3.5 mph - N/A Fog Fog
4:55 AM 59.0 °F 59.0 °F 100% 30.26 in 0.2 mi SW 4.6 mph - N/A Fog Fog
5:15 AM 59.0 °F 59.0 °F 100% 30.26 in 0.2 mi SW 5.8 mph - N/A Fog Fog
5:35 AM 59.0 °F 59.0 °F 100% 30.27 in 0.2 mi SW 5.8 mph - N/A Fog Fog
5:55 AM 59.0 °F 59.0 °F 100% 30.28 in 0.2 mi WSW 4.6 mph - N/A Fog Fog
6:15 AM 59.0 °F 59.0 °F 100% 30.29 in 0.2 mi WSW 4.6 mph - N/A Fog Fog
6:35 AM 60.8 °F 60.8 °F 100% 30.29 in 0.2 mi SW 4.6 mph - N/A Fog Fog
6:55 AM 60.8 °F 60.8 °F 100% 30.29 in 0.5 mi WSW 5.8 mph - N/A Fog Fog
7:15 AM 60.8 °F 60.8 °F 100% 30.30 in 0.5 mi SW 6.9 mph - N/A Fog Fog
7:35 AM 60.8 °F 60.8 °F 100% 30.30 in 0.2 mi SW 8.1 mph - N/A Fog Fog
7:55 AM 60.8 °F 60.8 °F 100% 30.30 in 0.2 mi SW 4.6 mph - N/A Fog Fog
8:15 AM 60.8 °F 60.8 °F 100% 30.31 in 0.5 mi West 4.6 mph - N/A Fog Fog
8:35 AM 60.8 °F 60.8 °F 100% 30.31 in 0.8 mi WSW 8.1 mph - N/A   Mist
8:55 AM 60.8 °F 60.8 °F 100% 30.31 in 1.0 mi WSW 8.1 mph - 0.01 in   Mist
9:35 AM 60.8 °F 60.8 °F 100% 30.31 in 0.5 mi WSW 5.8 mph - N/A Fog Fog
9:55 AM 62.6 °F 62.6 °F 100% 30.31 in 0.8 mi SW 6.9 mph - N/A   Mist
10:15 AM 62.6 °F 62.6 °F 100% 30.31 in 1.0 mi WSW 6.9 mph - N/A   Mist
10:35 AM 62.6 °F 62.6 °F 100% 30.31 in 1.5 mi SW 8.1 mph - N/A   Mist
10:55 AM 64.4 °F 64.4 °F 100% 30.31 in 2.5 mi SW 8.1 mph - N/A   Mist
11:15 AM 64.4 °F 64.4 °F 100% 30.30 in 3.0 mi WSW 8.1 mph - N/A   Overcast
11:35 AM 64.4 °F 64.4 °F 100% 30.29 in 5.0 mi WSW 4.6 mph - N/A   Overcast
11:55 AM 66.2 °F 66.2 °F 100% 30.29 in 7.0 mi WSW 6.9 mph - N/A   Scattered Clouds
12:15 PM 68.0 °F 68.0 °F 100% 30.28 in 10.0 mi WSW 8.1 mph - N/A   Scattered Clouds
12:35 PM 69.8 °F 69.8 °F 100% 30.27 in 10.0 mi West 8.1 mph - N/A   Clear
12:55 PM 73.4 °F 62.6 °F 69% 30.26 in 10.0 mi West 9.2 mph - N/A   Scattered Clouds
1:15 PM 73.4 °F 62.6 °F 69% 30.24 in 10.0 mi WSW 8.1 mph - N/A   Scattered Clouds
1:35 PM 75.2 °F 62.6 °F 65% 30.24 in 10.0 mi WSW 12.7 mph - N/A   Scattered Clouds
1:55 PM 75.2 °F 62.6 °F 65% 30.24 in 10.0 mi West 10.4 mph 17.3 mph N/A   Clear
2:15 PM 75.2 °F 62.6 °F 65% 30.22 in 10.0 mi SW 8.1 mph - N/A   Scattered Clouds
2:35 PM 77.0 °F 62.6 °F 61% 30.21 in 10.0 mi WSW 10.4 mph - N/A   Scattered Clouds
2:55 PM 77.0 °F 62.6 °F 61% 30.21 in 10.0 mi West 8.1 mph - N/A   Scattered Clouds
3:15 PM 75.2 °F 60.8 °F 61% 30.20 in 10.0 mi SW 8.1 mph - N/A   Scattered Clouds
3:55 PM 77.0 °F 59.0 °F 54% 30.21 in 10.0 mi WSW 10.4 mph - N/A   Scattered Clouds
4:15 PM 75.2 °F 59.0 °F 57% 30.21 in 10.0 mi WSW 9.2 mph - N/A   Clear
4:35 PM 75.2 °F 60.8 °F 61% 30.21 in 10.0 mi WSW 9.2 mph - N/A   Scattered Clouds
4:55 PM 73.4 °F 59.0 °F 61% 30.22 in 10.0 mi WSW 6.9 mph - N/A   Scattered Clouds
5:15 PM 71.6 °F 60.8 °F 69% 30.22 in 10.0 mi WSW 6.9 mph - N/A   Clear
5:35 PM 71.6 °F 60.8 °F 69% 30.22 in 10.0 mi West 5.8 mph - N/A   Clear
6:15 PM 69.8 °F 60.8 °F 73% 30.23 in 10.0 mi Calm Calm - N/A   Clear
6:35 PM 68.0 °F 60.8 °F 78% 30.24 in 10.0 mi North 3.5 mph - N/A   Clear
6:55 PM 68.0 °F 60.8 °F 78% 30.23 in 10.0 mi Calm Calm - N/A   Scattered Clouds
7:35 PM 64.4 °F 60.8 °F 88% 30.24 in 10.0 mi North 5.8 mph - N/A   Scattered Clouds
7:55 PM 64.4 °F 60.8 °F 88% 30.23 in 10.0 mi NNE 4.6 mph - N/A   Clear
8:15 PM 64.4 °F 60.8 °F 88% 30.23 in 10.0 mi North 4.6 mph - N/A   Clear
8:35 PM 64.4 °F 60.8 °F 88% 30.23 in 10.0 mi Calm Calm - N/A   Clear
8:55 PM 62.6 °F 60.8 °F 94% 30.22 in 10.0 mi Calm Calm - N/A   Clear
9:15 PM 62.6 °F 60.8 °F 94% 30.21 in 10.0 mi Calm Calm - N/A   Scattered Clouds
9:35 PM 62.6 °F 60.8 °F 94% 30.21 in 10.0 mi Calm Calm - N/A   Scattered Clouds
9:55 PM 62.6 °F 60.8 °F 94% 30.21 in 10.0 mi Calm Calm - N/A   Clear
10:15 PM 60.8 °F 60.8 °F 100% 30.22 in 7.0 mi Calm Calm - N/A   Clear
10:55 PM 60.8 °F 60.8 °F 100% 30.22 in 7.0 mi Calm Calm - N/A   Clear
11:15 PM 59.0 °F 59.0 °F 100% 30.22 in 4.0 mi Calm Calm - N/A   Clear
11:35 PM 59.0 °F 59.0 °F 100% 30.22 in 5.0 mi Calm Calm - N/A   Clear
11:55 PM 59.0 °F 59.0 °F 100% 30.21 in 3.0 mi Calm Calm - N/A   Clear